Home > Weather > Saint John's > Past weeks

Flag for Antigua and Barbuda Weather for the Past 2 Weeks in Saint John's, Antigua and Barbuda

Now
79 °F

Passing clouds.


Feels Like: 81 °F
Forecast: 76 / 82 °F
Wind: 12 mph from Southeast

Location: Vc Bird International Antigua Airport

Current Time: Feb 8, 2016 at 9:36:13 PM

Latest Report: Feb 8, 2016 at 8:00 PM


Visibility: N/A

Pressure: 30.04 "Hg

Humidity: 74%

Dew point: 70 °F

Location of Saint John'sLocation

Historic Weather in Saint John's — Graph

°F

Saint John's Temperature Yesterday

Maximum temperature yesterday: 82 °F (at 12:00 PM)
Minimum temperature yesterday: 77 °F (at 1:00 AM)
Average temperature yesterday: 79 °F

High & Low Weather Summary for the Past Weeks

 TemperatureHumidityPressure
High84 °F (Feb 6, 11:00 AM)94% (Jan 25, 2:00 AM)30.15 "Hg (Jan 25, 2:00 AM)
Low68 °F (Feb 5, 2:00 AM)54% (Feb 4, 1:00 PM)29.86 "Hg (Jan 28, 9:16 AM)
Average78 °F75%30.03 "Hg
* Reported Jan 24 8:00 PM — Feb 8 8:00 PM, Saint John's, Weather by CustomWeather, © 2016

Note: Actual official high and low records may vary slightly from our data, if they occured in-between our weather recording intervals... More about our weather records

Advertising

Saint John's Weather History for the Previous 24 Hours

 ConditionsComfort  
Time TempWeatherWind HumidityBarometerVisibility
8:00 PM
Mon, Feb 8
79 °FPassing clouds.12 mph74%30.04 "HgN/A
7:00 PM79 °FPassing clouds.13 mph74%30.01 "HgN/A
6:00 PM79 °FPassing clouds.9 mph74%30.01 "HgN/A
5:00 PM81 °FPartly sunny.9 mph74%30.01 "HgN/A
4:00 PM81 °FScattered clouds.12 mph70%30.01 "HgN/A
3:00 PM81 °FSprinkles. Partly sunny.10 mph74%30.01 "HgN/A
2:00 PM82 °FScattered clouds.12 mph70%30.01 "HgN/A
1:00 PM82 °FPartly sunny.14 mph66%30.01 "HgN/A
12:00 PM82 °FScattered clouds.13 mph66%30.04 "HgN/A
11:00 AM81 °FPartly sunny.12 mph74%30.07 "HgN/A
10:00 AM81 °FPartly sunny.12 mph74%30.09 "HgN/A
9:00 AM81 °FPartly sunny.12 mph70%30.07 "HgN/A
8:00 AM79 °FScattered clouds.8 mph74%30.04 "HgN/A
7:00 AM77 °FScattered clouds.8 mph79%30.04 "HgN/A
6:00 AM77 °FPassing clouds.8 mph79%30.01 "HgN/A
5:00 AM77 °FPassing clouds.8 mph79%30.01 "HgN/A
4:00 AM77 °FPassing clouds.7 mph79%30.01 "HgN/A
3:00 AM77 °FPassing clouds.7 mph79%30.01 "HgN/A
2:00 AM77 °FPassing clouds.8 mph79%30.04 "HgN/A
1:00 AM77 °FPassing clouds.7 mph83%30.07 "HgN/A
12:00 AM77 °FPassing clouds.8 mph79%30.07 "HgN/A
11:00 PM
Sun, Feb 7
77 °FPassing clouds.8 mph79%30.07 "HgN/A
10:00 PM77 °FPassing clouds.8 mph83%30.07 "HgN/A
9:00 PM77 °FPassing clouds.9 mph79%30.07 "HgN/A
Weather by CustomWeather, © 2016

See weather overviewHow to use our weather pages